Latest Coastal Weather Observations for Gunn Point

IDD60701

Issued at 8:21 pm CST Monday 31 August 2015 (issued every 10 minutes, with the page automatically refreshed every 10 minutes)

About coastal observations | Map of coastal stations | Coastal observations for NT | Marine services | Other Formats
Station Details ID: 014023 Name: GUNN POINT Lat: -12.25 Lon: 131.04 Height: 25.0 m
Data from the previous 72 hours. | See also: Recent months for locations in Northern Territory
Date/Time
CST
Temp

°C
Wind Pressure Rain
since 9am
mm
Weather Cloud Vis
km
Sea
Height
m
Swell
Dir
 
Speed
knots
Gust
knots
hPa Trend Height
m
Period
s
Dir
31/08:00pm 26.4 WSW 5 10 1013.0 - 0.0 - - - - - - -
31/07:30pm 26.6 W 4 8 1012.7 - 0.0 - - - - - - -
31/07:00pm 26.6 W 4 8 1012.5 - 0.0 - - - - - - -
31/06:30pm 27.3 WNW 4 7 1012.3 - 0.0 - - - - - - -
31/06:00pm 28.3 WNW 3 6 1012.1 - 0.0 - - - - - - -
31/05:30pm 29.1 WNW 4 8 1012.0 - 0.0 - - - - - - -
31/05:00pm 29.4 W 5 8 1011.9 - 0.0 - - - - - - -
31/04:30pm 28.9 WNW 6 10 1011.7 - 0.0 - - - - - - -
31/04:00pm 29.5 W 6 9 1011.9 - 0.0 - - - - - - -
31/03:30pm 29.0 WNW 6 9 1012.2 - 0.0 - - - - - - -
31/03:00pm 30.1 W 7 10 1012.6 - 0.0 - - - - - - -
31/02:30pm 29.6 W 7 11 1013.1 - 0.0 - - - - - - -
31/02:00pm 29.4 W 6 11 1013.4 - 0.0 - - - - - - -
31/01:30pm 29.6 W 6 11 1013.8 - 0.0 - - - - - - -
31/01:00pm 28.9 W 6 11 1014.2 - 0.0 - - - - - - -
31/12:30pm 28.5 W 6 10 1014.5 - 0.0 - - - - - - -
31/12:00pm 28.3 W 6 10 1015.1 - 0.0 - - - - - - -
31/11:30am 28.3 W 5 8 1015.5 - 0.0 - - - - - - -
31/11:00am 28.3 WNW 5 8 1015.7 - 0.0 - - - - - - -
31/10:30am 28.4 W 4 9 1015.8 - 0.0 - - - - - - -
31/10:00am 28.0 SW 3 5 1015.8 - 0.0 - - - - - - -
31/09:30am 27.8 N 2 4 1015.8 - 0.0 - - - - - - -
31/09:00am 27.0 CALM 0 3 1015.9 - 0.0 - - - - - - -
31/08:30am 26.5 NNW 2 5 1015.8 - 0.0 - - - - - - -
31/08:00am 24.6 N 1 3 1015.4 - 0.0 - - - - - - -
31/07:30am 22.0 CALM 0 0 1015.0 - 0.0 - - - - - - -
31/07:00am 20.7 CALM 0 0 1014.5 - 0.0 - - - - - - -
31/06:30am 20.9 NNE 1 3 1014.1 - 0.0 - - - - - - -
31/06:00am 21.6 NNE 1 3 1014.1 - 0.0 - - - - - - -
31/05:30am 20.9 CALM 0 0 1014.0 - 0.0 - - - - - - -
31/05:00am 21.1 ENE 1 2 1014.0 - 0.0 - - - - - - -
31/04:30am 21.7 ENE 2 3 1014.0 - 0.0 - - - - - - -
31/04:00am 21.4 CALM 0 2 1014.1 - 0.0 - - - - - - -
31/03:30am 21.4 ENE 1 2 1014.2 - 0.0 - - - - - - -
31/03:00am 21.2 CALM 0 2 1014.2 - 0.0 - - - - - - -
31/02:30am 21.5 CALM 0 0 1014.3 - 0.0 - - - - - - -
31/02:00am 21.5 CALM 0 0 1014.5 - 0.0 - - - - - - -
31/01:30am 21.6 CALM 0 0 1014.8 - 0.0 - - - - - - -
31/01:00am 22.0 CALM 0 0 1015.0 - 0.0 - - - - - - -
31/12:30am 22.3 CALM 0 0 1015.4 - 0.0 - - - - - - -
31/12:00am 22.6 CALM 0 0 1015.5 - 0.0 - - - - - - -
 
Date/Time
CST
Temp

°C
Wind Pressure Rain
since 9am
mm
Weather Cloud Vis
km
Sea
Height
m
Swell
Dir
 
Speed
knots
Gust
knots
hPa Trend Height
m
Period
s
Dir
30/11:30pm 22.5 CALM 0 0 1015.5 - 0.0 - - - - - - -
30/11:00pm 22.6 CALM 0 0 1015.3 - 0.0 - - - - - - -
30/10:30pm 23.0 CALM 0 0 1015.1 - 0.0 - - - - - - -
30/10:00pm 24.0 NNW 1 3 1014.9 - 0.0 - - - - - - -
30/09:30pm 24.1 CALM 0 0 1014.4 - 0.0 - - - - - - -
30/09:00pm 25.5 SSW 1 5 1014.1 - 0.0 - - - - - - -
30/08:30pm 26.0 CALM 0 1 1013.6 - 0.0 - - - - - - -
30/08:00pm 26.5 SW 2 5 1013.3 - 0.0 - - - - - - -
30/07:30pm 26.9 WSW 1 5 1013.0 - 0.0 - - - - - - -
30/07:00pm 26.9 CALM 0 0 1012.7 - 0.0 - - - - - - -
30/06:30pm 28.9 NNW 1 3 1012.4 - 0.0 - - - - - - -
30/06:00pm 29.9 N 3 6 1012.1 - 0.0 - - - - - - -
30/05:30pm 30.4 NNE 4 8 1012.1 - 0.0 - - - - - - -
30/05:00pm 30.9 NNE 5 9 1012.0 - 0.0 - - - - - - -
30/04:30pm 30.4 N 6 10 1012.0 - 0.0 - - - - - - -
30/04:00pm 31.1 NNW 7 12 1012.0 - 0.0 - - - - - - -
30/03:30pm 31.5 N 5 11 1012.0 - 0.0 - - - - - - -
30/03:00pm 31.3 NNE 7 13 1012.2 - 0.0 - - - - - - -
30/02:30pm 32.2 NE 6 11 1012.4 - 0.0 - - - - - - -
30/02:00pm 31.8 NNE 7 13 1012.9 - 0.0 - - - - - - -
30/01:30pm 31.5 NE 7 11 1013.5 - 0.0 - - - - - - -
30/01:00pm 31.5 NNE 5 10 1013.9 - 0.0 - - - - - - -
30/12:30pm 31.5 W 3 6 1014.5 - 0.0 - - - - - - -
30/12:00pm 30.0 NNE 3 6 1015.2 - 0.0 - - - - - - -
30/11:30am 29.8 NE 3 9 1015.7 - 0.0 - - - - - - -
30/11:00am 30.3 ENE 4 10 1016.2 - 0.0 - - - - - - -
30/10:30am 30.2 NNE 3 6 1016.4 - 0.0 - - - - - - -
30/10:00am 29.3 ENE 4 8 1016.5 - 0.0 - - - - - - -
30/09:30am 27.9 E 4 9 1016.6 - 0.0 - - - - - - -
30/09:00am 27.3 E 5 10 1016.4 - 0.0 - - - - - - -
30/08:30am 26.1 E 3 5 1016.1 - 0.0 - - - - - - -
30/08:00am 24.2 E 1 4 1015.8 - 0.0 - - - - - - -
30/07:30am 21.9 CALM 0 1 1015.4 - 0.0 - - - - - - -
30/07:00am 21.2 ENE 1 3 1015.0 - 0.0 - - - - - - -
30/06:30am 21.3 ENE 2 3 1014.7 - 0.0 - - - - - - -
30/06:00am 21.2 CALM 0 0 1014.4 - 0.0 - - - - - - -
30/05:30am 21.7 CALM 0 0 1014.2 - 0.0 - - - - - - -
30/05:00am 22.1 ENE 1 2 1014.3 - 0.0 - - - - - - -
30/04:30am 22.5 ESE 1 2 1014.1 - 0.0 - - - - - - -
30/04:00am 23.0 ENE 1 3 1014.0 - 0.0 - - - - - - -
30/03:30am 23.7 CALM 0 0 1014.1 - 0.0 - - - - - - -
30/03:00am 23.6 CALM 0 1 1014.2 - 0.0 - - - - - - -
30/02:30am 25.0 CALM 0 1 1014.3 - 0.0 - - - - - - -
30/02:00am 25.5 W 2 4 1014.5 - 0.0 - - - - - - -
30/01:30am 25.7 W 3 5 1014.7 - 0.0 - - - - - - -
30/01:00am 25.5 W 1 4 1015.1 - 0.0 - - - - - - -
30/12:30am 25.7 WNW 3 5 1015.3 - 0.0 - - - - - - -
30/12:00am 25.5 NW 1 2 1015.4 - 0.0 - - - - - - -
 
Date/Time
CST
Temp

°C
Wind Pressure Rain
since 9am
mm
Weather Cloud Vis
km
Sea
Height
m
Swell
Dir
 
Speed
knots
Gust
knots
hPa Trend Height
m
Period
s
Dir
29/11:30pm 25.6 WNW 1 4 1015.1 - 0.0 - - - - - - -
29/11:00pm 25.8 WNW 3 6 1015.1 - 0.0 - - - - - - -
29/10:30pm 25.5 WNW 2 5 1015.1 - 0.0 - - - - - - -
29/10:00pm 22.9 CALM 0 0 1015.1 - 0.0 - - - - - - -
29/09:30pm 23.0 CALM 0 0 1014.9 - 0.0 - - - - - - -
29/09:00pm 23.9 CALM 0 0 1014.5 - 0.0 - - - - - - -
29/08:30pm 24.7 CALM 0 0 1014.2 - 0.0 - - - - - - -
29/08:00pm 25.5 NE 1 2 1013.9 - 0.0 - - - - - - -
29/07:30pm 26.0 NE 1 3 1013.5 - 0.0 - - - - - - -
29/07:00pm 26.5 NNE 3 6 1013.2 - 0.0 - - - - - - -
29/06:30pm 27.3 NNE 3 8 1013.0 - 0.0 - - - - - - -
29/06:00pm 28.3 NE 5 11 1012.7 - 0.0 - - - - - - -
29/05:30pm 29.2 NE 7 10 1012.5 - 0.0 - - - - - - -
29/05:00pm 30.1 NE 7 13 1012.4 - 0.0 - - - - - - -
29/04:30pm 30.4 NE 7 13 1012.2 - 0.0 - - - - - - -
29/04:00pm 30.5 NNE 7 15 1012.3 - 0.0 - - - - - - -
29/03:30pm 30.3 NNE 7 13 1012.7 - 0.0 - - - - - - -
29/03:00pm 30.0 NE 9 15 1013.0 - 0.0 - - - - - - -
29/02:30pm 30.9 NNE 8 14 1013.4 - 0.0 - - - - - - -
29/02:00pm 31.1 NE 7 14 1013.8 - 0.0 - - - - - - -
29/01:30pm 31.8 NNE 4 10 1014.3 - 0.0 - - - - - - -
29/01:00pm 30.3 W 4 8 1014.7 - 0.0 - - - - - - -
29/12:30pm 29.7 W 4 8 1015.2 - 0.0 - - - - - - -
29/12:00pm 32.2 ENE 5 9 1015.5 - 0.0 - - - - - - -
29/11:30am 31.5 E 7 13 1016.0 - 0.0 - - - - - - -
29/11:00am 30.5 ENE 6 13 1016.7 - 0.0 - - - - - - -
29/10:30am 30.4 SE 5 9 1017.0 - 0.0 - - - - - - -
29/10:00am 29.7 ESE 3 6 1017.1 - 0.0 - - - - - - -
29/09:30am 28.3 W 2 5 1017.1 - 0.0 - - - - - - -
29/09:00am 27.2 NW 1 4 1016.8 - 0.0 - - - - - - -
29/08:30am 26.4 CALM 0 0 1016.5 - 0.0 - - - - - - -
29/08:00am 24.1 CALM 0 0 1016.3 - 0.0 - - - - - - -
29/07:30am 20.3 CALM 0 0 1015.9 - 0.0 - - - - - - -
29/07:00am 19.2 CALM 0 0 1015.6 - 0.0 - - - - - - -
29/06:30am 19.4 CALM 0 0 1014.9 - 0.0 - - - - - - -
29/06:00am 19.8 CALM 0 0 1014.7 - 0.0 - - - - - - -
29/05:30am 19.8 CALM 0 0 1014.5 - 0.0 - - - - - - -
29/05:00am 20.3 CALM 0 1 1014.5 - 0.0 - - - - - - -
29/04:30am 20.8 E 2 3 1014.4 - 0.0 - - - - - - -
29/04:00am 20.3 ENE 1 2 1014.4 - 0.0 - - - - - - -
29/03:30am 19.9 CALM 0 0 1014.5 - 0.0 - - - - - - -
29/03:00am 20.0 CALM 0 0 1014.5 - 0.0 - - - - - - -
29/02:30am 20.3 CALM 0 0 1014.7 - 0.0 - - - - - - -
29/02:00am 20.6 CALM 0 0 1014.8 - 0.0 - - - - - - -
29/01:30am 20.8 CALM 0 0 1015.0 - 0.0 - - - - - - -
29/01:00am 21.0 CALM 0 0 1015.2 - 0.0 - - - - - - -
29/12:30am 21.2 CALM 0 0 1015.4 - 0.0 - - - - - - -
29/12:00am 21.2 CALM 0 0 1015.5 - 0.0 - - - - - - -
 
Date/Time
CST
Temp

°C
Wind Pressure Rain
since 9am
mm
Weather Cloud Vis
km
Sea
Height
m
Swell
Dir
 
Speed
knots
Gust
knots
hPa Trend Height
m
Period
s
Dir
28/11:30pm 21.1 CALM 0 0 1015.4 - 0.0 - - - - - - -
28/11:00pm 21.2 CALM 0 0 1015.2 - 0.0 - - - - - - -
28/10:30pm 21.6 CALM 0 0 1014.8 - 0.0 - - - - - - -
28/10:00pm 21.7 CALM 0 0 1014.8 - 0.0 - - - - - - -
28/09:30pm 22.2 CALM 0 0 1014.5 - 0.0 - - - - - - -
28/09:00pm 22.8 CALM 0 0 1014.3 - 0.0 - - - - - - -
28/08:30pm 23.4 CALM 0 0 1013.8 - 0.0 - - - - - - -

Other Formats:

Comma delimited format used in spreadsheet applications
http://www.bom.gov.au/fwo/IDD60701/IDD60701.99501.axf

JavaScript Object Notation format (JSON) in row-major order
http://www.bom.gov.au/fwo/IDD60701/IDD60701.99501.json